Flag for U.S.A. Weather past 2 weeks in Austin, Texas, U.S.A.

Now
71 °F

Sunny.


Feels Like: 76 °F
Forecast: 43 / 74 °F
Wind: 5 mph from North

Location: Camp Mabry / Austin City

Current Time: Jan 26, 2015 at 2:56:16 PM

Latest Report: Jan 26, 2015 at 1:51 PM


Visibility: 10 mi

Pressure: 30.18 "Hg

Humidity: 30%

Dew point: 38 °F

Location of AustinLocation

Historic Weather in Austin — Graph

°F

Austin temperature yesterday

Maximum temperature yesterday: 72 °F (at 2:51 PM)
Minimum temperature yesterday: 40 °F (at 5:51 AM)
Average temperature yesterday: 56 °F

Past Weeks' High & Low Weather Summary

 TemperatureHumidityPressure
High79 °F (Jan 20, 3:51 PM)100% (Jan 12, 3:51 AM)30.51 "Hg (Jan 12, 3:51 AM)
Low35 °F (Jan 13, 6:51 AM)20% (Jan 18, 1:51 PM)29.85 "Hg (Jan 20, 3:51 PM)
Average49 °F72%30.20 "Hg
* Reported Jan 11 1:51 PM — Jan 26 1:51 PM, Austin, Weather by CustomWeather, © 2014

Note: Actual official high and low records may vary slightly from our data, if they occured in-between our weather recording intervals... More about our weather records

Advertising

Austin weather history for previous 24 hours

 ConditionsComfort  
Time TempWeatherWind HumidityBarometerVisibility
1:51 PM
Jan 26
71 °FSunny.5 mph30%30.18 "Hg10 mi
12:51 PM68 °FSunny.6 mph32%30.22 "Hg10 mi
11:51 AM66 °FSunny.6 mph34%30.25 "Hg10 mi
10:51 AM61 °FSunny.6 mph42%30.28 "Hg10 mi
9:51 AM53 °FSunny.5 mph52%30.28 "Hg10 mi
8:51 AM49 °FSunny.7 mph57%30.28 "Hg10 mi
7:51 AM46 °FSunny.6 mph61%30.28 "Hg10 mi
6:51 AM46 °FClear.8 mph61%30.27 "Hg10 mi
5:51 AM47 °FClear.7 mph59%30.24 "Hg10 mi
4:51 AM48 °FClear.7 mph56%30.22 "Hg10 mi
3:51 AM49 °FClear.7 mph55%30.22 "Hg10 mi
2:51 AM48 °FClear.6 mph56%30.20 "Hg10 mi
1:51 AM50 °FClear.6 mph52%30.19 "Hg10 mi
12:51 AM52 °FClear.6 mph47%30.19 "Hg10 mi
11:51 PM
Jan 25
56 °FClear.9 mph37%30.18 "Hg10 mi
10:51 PM52 °FClear.5 mph47%30.20 "Hg10 mi
9:51 PM56 °FClear.7 mph37%30.20 "Hg10 mi
8:51 PM56 °FClear.5 mph39%30.19 "Hg10 mi
7:51 PM60 °FClear.6 mph32%30.17 "Hg10 mi
6:51 PM61 °FClear.6 mph31%30.16 "Hg10 mi
5:51 PM65 °FSunny.No wind27%30.14 "Hg10 mi
4:51 PM68 °FSunny.10 mph23%30.11 "Hg10 mi
3:51 PM70 °FSunny.9 mph22%30.10 "Hg10 mi
2:51 PM72 °FSunny.10 mph20%30.10 "Hg10 mi
Weather by CustomWeather, © 2014

See weather overviewHow to use our weather pages